User: anonymous   Login
Location: Unspecified
(0.0000°N, 0.0000°E)
Time: 15:05:05
(UTC+00:00)
Language:

Azur - Orbit

View from above orbital plane
View from above orbital plane
View from above satellite
View from above satellite

Ground track
Ground track

The orbit data is extracted from the following two-line orbital elements,

1  4221U 69097A   19111.93226094 +.00002125 +00000-0 +10478-3 0  9991
2  4221 102.7040 290.9362 0623697 237.8416 116.0788 14.26432607345143
Epoch (UTC): 21 April 2019 22:22:27
Eccentricity: 0.0623697
inclination: 102.7040°
perigee height: 356 km
apogee height: 1251 km
right ascension of ascending node: 290.9362°
argument of perigee: 237.8416°
revolutions per day: 14.26432607
mean anomaly at epoch: 116.0788°
orbit number at epoch: 34514

The dashed part of the orbit path shows where the satellite is in the earth's shadow,  

DLR